Volver al catálogo

NEONSAT-1

ActivoCienciaSSO
NORAD 59587·PAYLOAD·🇰🇷 South Korea

Lanzado Apr 23, 2024 desde Rocket Lab Launch Complex 1

Loading…

Próximos Pases (próximas 24 horas)

TLE

ActualizadoSource: Space-Track

Época: Sep 14, 2026, 21:39 UTC

1 59587U 24077A   26257.90213553  .00012558  00000-0  31103-3 0  9996
2 59587  97.3445 342.2230 0009044  73.2633 286.9605 15.40510712133532

Sigue NEONSAT-1 en tiempo real con AllMySat

Download on the App Store